FW7566 Weather Reports


Display with metric or nautical units.
time (UTC)temp
F
wind
direction
speed
MPH
gust
MPH
rain 1hr
in
rain 24hr
in
rain mn
in
humidity
%
barometer
mb
20260510142015 56 144 1.0 2.0 0.00 0.00 0.00 98 1013.7
20260510141512 56 192 0.0 0.0 0.00 0.00 0.00 99 1013.7
20260510141009 56 130 1.0 1.0 0.00 0.00 0.00 99 1013.8
20260510140506 56 177 0.0 0.0 0.00 0.00 0.00 99 1013.6
20260510140000 55 139 0.0 1.0 0.00 0.00 0.00 99 1013.6
20260510135455 55 172 1.0 2.0 0.00 0.00 0.00 99 1013.5
20260510134953 55 225 2.0 2.0 0.00 0.00 0.00 99 1013.4
20260510134450 56 164 0.0 1.0 0.00 0.00 0.00 99 1013.5
20260510133946 55 174 4.0 5.0 0.00 0.00 0.00 99 1013.6
20260510133442 55 146 2.0 2.0 0.00 0.00 0.00 99 1013.6
20260510132938 55 158 1.0 1.0 0.00 0.00 0.00 99 1013.5
20260510132435 55 159 0.0 0.0 0.00 0.00 0.00 99 1013.5
20260510131932 54 208 0.0 0.0 0.00 0.00 0.00 99 1013.7
20260510131430 54 182 0.0 1.0 0.00 0.00 0.00 99 1013.7
20260510130926 53 230 2.0 2.0 0.00 0.00 0.00 99 1013.5
20260510130423 53 123 0.0 0.0 0.00 0.00 0.00 99 1013.5
20260510125920 53 242 1.0 2.0 0.00 0.00 0.00 99 1013.6
20260510125416 54 182 0.0 0.0 0.00 0.00 0.00 99 1013.2
20260510124914 53 135 0.0 0.0 0.00 0.00 0.00 99 1013.1
20260510124410 53 113 0.0 0.0 0.00 0.00 0.00 99 1013.0
20260510123906 53 149 0.0 0.0 0.00 0.00 0.00 99 1013.2
20260510123402 53 120 0.0 0.0 0.00 0.00 0.00 99 1013.1
20260510122858 52 125 0.0 0.0 0.00 0.00 0.00 99 1012.9
20260510122354 52 122 0.0 0.0 0.00 0.00 0.00 99 1013.0
20260510121850 53 215 0.0 0.0 0.00 0.00 0.00 99 1012.9
20260510121348 53 147 0.0 0.0 0.00 0.00 0.00 99 1013.0
20260510120845 52 348 0.0 0.0 0.00 0.00 0.00 99 1012.9
20260510120343 52 231 0.0 0.0 0.00 0.00 0.00 99 1012.8
20260510115837 52 147 0.0 0.0 0.00 0.00 0.00 99 1012.8
20260510115335 51 174 0.0 0.0 0.00 0.00 0.00 99 1012.6
20260510114831 51 140 0.0 0.0 0.00 0.00 0.00 99 1012.7
20260510114328 51 122 0.0 0.0 0.00 0.00 0.00 99 1012.7
20260510113828 51 45 0.0 0.0 0.00 0.00 0.00 99 1012.8
20260510113325 51 209 0.0 0.0 0.00 0.00 0.00 99 1012.7
20260510112822 51 150 0.0 0.0 0.00 0.00 0.00 99 1012.5
20260510112319 51 350 0.0 0.0 0.00 0.00 0.00 99 1012.5
20260510111815 51 349 0.0 0.0 0.00 0.00 0.00 99 1012.5
20260510111311 51 144 0.0 0.0 0.00 0.00 0.00 99 1012.5
20260510110811 51 169 0.0 0.0 0.00 0.00 0.00 99 1012.4
20260510110309 51 93 0.0 0.0 0.00 0.00 0.00 99 1012.4
20260510105804 51 94 0.0 0.0 0.00 0.00 0.00 99 1012.3
20260510105259 51 132 0.0 0.0 0.00 0.00 0.00 99 1012.3
20260510104756 51 171 0.0 0.0 0.00 0.00 0.00 99 1012.2
20260510104253 50 183 0.0 0.0 0.00 0.00 0.00 99 1012.0
20260510103749 50 169 0.0 0.0 0.00 0.00 0.00 99 1012.0
20260510103246 50 168 0.0 0.0 0.00 0.00 0.00 99 1012.1
20260510102746 50 168 0.0 0.0 0.00 0.00 0.00 99 1012.2
20260510102242 50 167 0.0 0.0 0.00 0.00 0.00 99 1012.1
20260510101740 50 151 0.0 0.0 0.00 0.00 0.00 99 1011.9
20260510101238 50 151 0.0 0.0 0.00 0.00 0.00 99 1011.9
20260510100733 50 152 0.0 0.0 0.00 0.00 0.00 99 1012.0
20260510100232 50 152 0.0 0.0 0.00 0.00 0.00 99 1012.0
20260510095727 50 151 0.0 0.0 0.00 0.00 0.00 99 1012.3
20260510095222 50 151 0.0 0.0 0.00 0.00 0.00 99 1012.2
20260510094721 50 151 0.0 0.0 0.00 0.00 0.00 99 1012.2
20260510094217 50 151 0.0 0.0 0.00 0.00 0.00 99 1012.3
20260510093713 50 173 0.0 0.0 0.00 0.00 0.00 99 1012.3
20260510093210 50 185 0.0 0.0 0.00 0.00 0.00 99 1012.2
20260510092707 50 185 0.0 0.0 0.00 0.00 0.00 99 1012.1
20260510092202 50 160 0.0 0.0 0.00 0.00 0.00 99 1011.8
20260510091658 50 160 0.0 0.0 0.00 0.00 0.00 99 1012.3
20260510091154 50 148 0.0 0.0 0.00 0.00 0.00 99 1012.2
20260510090652 50 133 0.0 0.0 0.00 0.00 0.00 99 1012.4
20260510090148 50 133 0.0 0.0 0.00 0.00 0.00 99 1012.3
20260510085643 50 133 0.0 0.0 0.00 0.00 0.00 99 1012.2
20260510085138 50 125 0.0 0.0 0.00 0.00 0.00 99 1012.6
20260510084635 50 125 0.0 0.0 0.00 0.00 0.00 99 1012.5
20260510084132 50 117 0.0 0.0 0.00 0.00 0.00 99 1012.5
20260510083628 50 108 0.0 0.0 0.00 0.00 0.00 99 1012.4
20260510083125 51 92 0.0 0.0 0.00 0.00 0.00 99 1012.4
20260510082622 51 61 0.0 0.0 0.00 0.00 0.00 99 1012.5
20260510082118 51 53 1.0 2.0 0.00 0.00 0.00 99 1012.5
20260510081617 51 68 0.0 0.0 0.00 0.00 0.00 99 1012.5
20260510081113 51 120 0.0 0.0 0.00 0.00 0.00 99 1012.1
20260510080608 51 332 0.0 1.0 0.00 0.00 0.00 99 1012.2
20260510080105 51 79 0.0 0.0 0.00 0.00 0.00 99 1012.3
20260510075602 51 60 0.0 0.0 0.00 0.00 0.00 99 1011.9
20260510075058 51 151 0.0 0.0 0.00 0.00 0.00 99 1011.5
20260510074556 51 84 0.0 0.0 0.00 0.00 0.00 99 1011.5
20260510074051 51 73 0.0 0.0 0.00 0.00 0.00 99 1011.4
20260510073547 51 110 0.0 0.0 0.00 0.00 0.00 99 1011.6
20260510073045 51 109 0.0 0.0 0.00 0.00 0.00 99 1011.7
20260510072541 51 108 0.0 0.0 0.00 0.00 0.00 99 1011.6
20260510072037 51 137 0.0 0.0 0.00 0.00 0.00 99 1011.5
20260510071533 51 134 0.0 0.0 0.00 0.00 0.00 99 1011.6
20260510071032 51 134 0.0 0.0 0.00 0.00 0.00 99 1011.4
20260510070528 51 117 0.0 0.0 0.00 0.00 0.00 99 1011.4
20260510070025 51 123 0.0 0.0 0.00 0.00 0.00 99 1011.5
20260510065521 51 123 0.0 0.0 0.00 0.00 0.00 99 1011.7
20260510065017 51 119 0.0 0.0 0.00 0.00 0.00 99 1011.9
20260510064514 51 118 0.0 0.0 0.00 0.00 0.00 99 1011.7
20260510064011 51 102 0.0 0.0 0.00 0.00 0.00 99 1012.0
20260510063508 51 38 0.0 0.0 0.00 0.00 0.00 99 1011.7
20260510063005 51 129 0.0 0.0 0.00 0.00 0.00 99 1011.9
20260510062500 51 130 0.0 0.0 0.00 0.00 0.00 99 1011.7
20260510061955 51 149 0.0 0.0 0.00 0.00 0.00 99 1011.7
20260510061453 51 149 0.0 0.0 0.00 0.00 0.00 99 1011.5
20260510060949 51 143 0.0 0.0 0.00 0.00 0.00 99 1011.5
20260510060446 51 143 0.0 0.0 0.00 0.00 0.00 99 1011.5
20260510055942 51 143 0.0 0.0 0.00 0.00 0.00 99 1011.3
20260510055438 51 142 0.0 0.0 0.00 0.00 0.00 99 1011.3
20260510054936 50 141 0.0 0.0 0.00 0.00 0.00 99 1011.4
20260510054431 50 141 0.0 0.0 0.00 0.00 0.00 99 1011.6
20260510053926 50 136 0.0 0.0 0.00 0.00 0.00 99 1011.6
20260510053422 50 128 0.0 0.0 0.00 0.00 0.00 99 1011.4
20260510052919 50 127 0.0 0.0 0.00 0.00 0.00 99 1011.4
20260510052414 50 127 0.0 0.0 0.00 0.00 0.00 99 1011.4
20260510051911 50 113 0.0 0.0 0.00 0.00 0.00 99 1011.6
20260510051408 50 113 0.0 0.0 0.00 0.00 0.00 99 1011.4
20260510050904 50 114 0.0 0.0 0.00 0.00 0.00 99 1011.6
20260510050401 50 114 0.0 0.0 0.00 0.00 0.00 99 1011.7
20260510045858 50 114 0.0 0.0 0.00 0.00 0.00 99 1011.5
20260510045355 49 113 0.0 0.0 0.00 0.00 0.00 99 1011.7
20260510044852 49 115 0.0 0.0 0.00 0.00 0.00 99 1011.7
20260510044348 49 115 0.0 0.0 0.00 0.00 0.00 99 1011.6
20260510043845 49 115 0.0 0.0 0.00 0.00 0.00 99 1011.8
20260510043341 48 114 0.0 0.0 0.00 0.00 0.00 99 1011.6
20260510042839 49 114 0.0 0.0 0.00 0.00 0.00 99 1011.7
20260510042335 49 114 0.0 0.0 0.00 0.00 0.00 99 1011.8
20260510041831 49 114 0.0 0.0 0.00 0.00 0.00 99 1011.9
20260510041328 48 114 0.0 0.0 0.00 0.00 0.00 99 1011.8
20260510040826 49 114 0.0 0.0 0.00 0.00 0.00 99 1011.7
20260510040322 49 113 0.0 0.0 0.00 0.00 0.00 99 1011.6
20260510035818 49 117 0.0 0.0 0.00 0.32 0.32 99 1011.6
20260510035314 49 117 0.0 0.0 0.00 0.32 0.32 99 1011.6
20260510034810 50 116 0.0 0.0 0.00 0.32 0.32 99 1011.5
20260510034308 50 116 0.0 0.0 0.00 0.32 0.32 99 1011.7
20260510033804 50 127 0.0 0.0 0.00 0.32 0.32 99 1011.6
20260510033301 50 130 0.0 0.0 0.00 0.32 0.32 99 1011.3
20260510032757 50 117 0.0 0.0 0.00 0.32 0.32 99 1011.3
20260510032254 50 119 0.0 0.0 0.00 0.32 0.32 99 1011.3
20260510031749 50 112 0.0 0.0 0.00 0.32 0.32 99 1011.4
20260510031245 50 131 0.0 0.0 0.00 0.32 0.32 99 1011.4
20260510030739 50 179 0.0 0.0 0.00 0.32 0.32 99 1011.2
20260510030237 49 173 0.0 0.0 0.00 0.32 0.32 99 1011.2
20260510025734 49 172 0.0 0.0 0.00 0.32 0.32 99 1011.3
20260510025232 49 172 0.0 0.0 0.00 0.32 0.32 99 1011.2
20260510024728 49 172 0.0 0.0 0.00 0.32 0.32 99 1011.4
20260510024225 49 172 0.0 0.0 0.00 0.32 0.32 99 1011.3
20260510023720 49 172 0.0 0.0 0.00 0.32 0.32 99 1011.2
20260510023217 49 177 0.0 0.0 0.00 0.32 0.32 99 1011.4
20260510022714 49 177 0.0 0.0 0.00 0.32 0.32 99 1011.2
20260510022208 49 201 0.0 0.0 0.00 0.32 0.32 99 1011.3
20260510021703 49 202 0.0 0.0 0.00 0.32 0.32 99 1011.3
20260510021201 49 201 0.0 0.0 0.00 0.32 0.32 99 1011.3
20260510020656 50 202 0.0 0.0 0.00 0.32 0.32 99 1011.3
20260510020151 50 202 0.0 0.0 0.00 0.32 0.32 99 1011.4
20260510015647 50 202 0.0 0.0 0.00 0.32 0.32 99 1011.6
20260510015144 50 201 0.0 0.0 0.00 0.32 0.32 99 1011.4
20260510014644 50 201 0.0 0.0 0.00 0.32 0.32 99 1011.3
20260510014142 50 201 0.0 0.0 0.00 0.32 0.32 99 1011.4
20260510013637 50 203 0.0 0.0 0.00 0.32 0.32 99 1011.3
20260510013132 51 206 0.0 0.0 0.00 0.32 0.32 99 1011.4
20260510012633 50 207 0.0 0.0 0.00 0.32 0.32 99 1011.2
20260510012129 50 207 0.0 0.0 0.00 0.32 0.32 99 1011.3
20260510011629 51 206 0.0 0.0 0.00 0.32 0.32 99 1011.4
20260510011125 51 206 0.0 0.0 0.00 0.32 0.32 99 1011.3
20260510010621 51 206 0.0 0.0 0.00 0.32 0.32 99 1011.2
20260510010118 51 205 0.0 0.0 0.00 0.32 0.32 99 1011.4
20260510005613 51 205 0.0 0.0 0.00 0.32 0.32 99 1011.1
20260510005111 51 205 0.0 0.0 0.00 0.32 0.32 99 1010.8
20260510004609 51 205 0.0 0.0 0.00 0.32 0.32 99 1010.8
20260510004107 52 206 0.0 0.0 0.00 0.32 0.32 99 1010.9
20260510003604 52 206 0.0 0.0 0.00 0.32 0.32 99 1010.7
20260510003059 52 206 0.0 0.0 0.00 0.32 0.32 99 1010.6
20260510002554 52 207 0.0 0.0 0.00 0.32 0.32 99 1010.5
20260510002051 52 208 0.0 0.0 0.00 0.32 0.32 99 1010.7
20260510001549 53 208 0.0 0.0 0.00 0.32 0.32 99 1010.6
20260510001048 52 208 0.0 0.0 0.00 0.32 0.32 99 1010.6
20260510000542 53 208 0.0 0.0 0.00 0.32 0.32 99 1010.8
20260510000039 53 208 0.0 0.0 0.00 0.32 0.32 99 1010.7
20260509235536 53 207 0.0 0.0 0.00 0.32 0.32 99 1010.8
20260509235033 53 202 0.0 0.0 0.00 0.32 0.32 99 1010.8
20260509234529 53 203 0.0 0.0 0.00 0.32 0.32 99 1010.8
20260509234027 54 203 0.0 0.0 0.00 0.32 0.32 99 1010.8
20260509233524 54 202 0.0 0.0 0.00 0.32 0.32 99 1010.5
20260509233021 54 211 0.0 0.0 0.00 0.32 0.32 99 1010.6
20260509232518 54 158 0.0 0.0 0.00 0.32 0.32 99 1010.6
20260509232014 55 151 0.0 1.0 0.00 0.32 0.32 99 1010.5
20260509231511 55 119 0.0 0.0 0.00 0.32 0.32 99 1010.4
20260509231009 55 179 0.0 0.0 0.00 0.32 0.32 99 1010.5
20260509230505 55 177 0.0 1.0 0.00 0.32 0.32 99 1010.5
20260509230002 55 206 2.0 2.0 0.00 0.32 0.32 99 1010.5
20260509225458 55 210 2.0 2.0 0.00 0.32 0.32 99 1010.4
20260509224953 55 160 1.0 1.0 0.00 0.32 0.32 99 1010.5
20260509224449 55 159 0.0 1.0 0.00 0.32 0.32 99 1010.6
20260509223946 55 197 1.0 1.0 0.00 0.32 0.32 99 1010.7
20260509223443 55 196 0.0 1.0 0.00 0.32 0.32 99 1010.7
20260509222940 55 195 0.0 0.0 0.00 0.32 0.32 99 1011.0
20260509222435 55 182 0.0 0.0 0.00 0.32 0.32 99 1010.8
20260509221931 55 186 0.0 0.0 0.00 0.32 0.32 99 1010.8
20260509221429 55 153 0.0 0.0 0.00 0.32 0.32 99 1010.9
20260509220924 55 208 1.0 1.0 0.00 0.32 0.32 99 1010.8
20260509220420 55 182 2.0 2.0 0.00 0.32 0.32 99 1010.9
20260509215917 55 172 0.0 0.0 0.00 0.32 0.32 99 1010.9
20260509215412 55 169 0.0 0.0 0.00 0.32 0.32 99 1010.8
20260509214910 55 161 0.0 0.0 0.07 0.32 0.32 99 1010.9
20260509214407 55 165 1.0 1.0 0.07 0.32 0.32 99 1010.8
20260509213904 54 202 0.0 1.0 0.12 0.32 0.32 99 1011.2
20260509213359 54 201 0.0 1.0 0.35 0.31 0.31 99 1011.2
20260509212857 54 147 1.0 1.0 0.50 0.30 0.30 99 1010.9
20260509212354 55 197 0.0 0.0 0.24 0.25 0.25 99 1011.3
20260509211850 55 57 0.0 0.0 0.17 0.22 0.22 99 1011.2
20260509211346 55 226 1.0 1.0 0.19 0.21 0.21 99 1010.9
20260509210843 55 128 0.0 0.0 0.24 0.20 0.20 99 1010.8
20260509210341 55 187 1.0 1.0 0.24 0.18 0.18 98 1010.8
20260509205840 55 136 0.0 0.0 0.12 0.16 0.16 98 1010.9
20260509205335 55 158 0.0 0.0 0.05 0.14 0.14 98 1011.2
20260509204832 55 182 0.0 0.0 0.19 0.14 0.14 97 1010.8
20260509204328 55 161 0.0 0.0 0.26 0.13 0.13 97 1010.8
20260509203824 55 101 0.0 0.0 0.19 0.12 0.12 96 1010.6
20260509203321 55 112 1.0 1.0 0.07 0.10 0.10 95 1011.0
20260509202817 55 89 0.0 0.0 0.00 0.09 0.09 95 1010.6
20260509202314 56 126 0.0 0.0 0.00 0.09 0.09 95 1010.9
20260509201813 56 124 0.0 1.0 0.00 0.09 0.09 95 1011.0
20260509201310 56 106 0.0 0.0 0.00 0.09 0.09 95 1011.0
20260509200806 55 72 0.0 0.0 0.05 0.09 0.09 95 1010.9
20260509200302 56 87 0.0 0.0 0.05 0.09 0.09 95 1011.2
20260509195758 56 114 0.0 1.0 0.07 0.08 0.08 94 1011.3
20260509195254 56 230 0.0 1.0 0.12 0.08 0.08 94 1011.5
20260509194748 56 116 0.0 0.0 0.12 0.07 0.07 94 1011.3
20260509194244 56 171 0.0 0.0 0.12 0.06 0.06 93 1011.3
20260509193741 56 97 0.0 0.0 0.12 0.06 0.06 92 1011.5
20260509193241 56 89 0.0 1.0 0.12 0.05 0.05 91 1012.0
20260509192737 57 234 2.0 2.0 0.07 0.04 0.04 91 1011.5
20260509192232 57 16 0.0 0.0 0.00 0.03 0.03 89 1011.4
20260509191728 57 162 0.0 0.0 0.05 0.03 0.03 88 1011.4
20260509191225 58 171 0.0 1.0 0.05 0.03 0.03 87 1011.4
20260509190721 58 270 1.0 1.0 0.00 0.02 0.02 86 1011.3
20260509190218 58 318 1.0 1.0 0.00 0.02 0.02 86 1011.3
20260509185716 58 278 1.0 1.0 0.00 0.02 0.02 86 1011.5
20260509185212 58 48 1.0 1.0 0.00 0.02 0.02 88 1011.2
20260509184709 58 231 0.0 0.0 0.00 0.02 0.02 87 1011.4
20260509184206 58 329 1.0 2.0 0.00 0.02 0.02 87 1011.3
20260509183702 58 73 0.0 0.0 0.00 0.02 0.02 88 1011.4
20260509183158 57 257 0.0 0.0 0.00 0.02 0.02 88 1011.1
20260509182653 57 343 1.0 1.0 0.00 0.02 0.02 88 1011.0
20260509182151 58 39 1.0 2.0 0.00 0.02 0.02 87 1011.4
20260509181649 58 103 1.0 2.0 0.07 0.02 0.02 86 1011.7
20260509181146 59 345 1.0 1.0 0.07 0.02 0.02 85 1011.6
20260509180643 59 328 2.0 3.0 0.07 0.02 0.02 84 1011.7
20260509180139 60 74 3.0 6.0 0.00 0.01 0.01 82 1011.8
20260509175635 60 52 2.0 2.0 0.00 0.01 0.01 82 1011.8
20260509175132 60 38 1.0 2.0 0.00 0.01 0.01 83 1011.5
20260509174628 60 206 1.0 1.0 0.05 0.01 0.01 84 1011.5
20260509174123 61 202 2.0 3.0 0.05 0.01 0.01 82 1011.5
20260509173619 62 312 2.0 3.0 0.00 0.00 0.00 79 1011.6
20260509173115 63 8 1.0 2.0 0.00 0.00 0.00 76 1011.3
20260509172612 65 276 2.0 5.0 0.00 0.00 0.00 71 1011.2
20260509172108 66 191 0.0 1.0 0.00 0.00 0.00 68 1011.4
20260509171604 66 190 2.0 2.0 0.00 0.00 0.00 66 1011.2
20260509171100 66 183 0.0 0.0 0.00 0.00 0.00 68 1011.2
20260509170557 67 273 1.0 1.0 0.00 0.00 0.00 66 1011.0
20260509170052 64 147 1.0 2.0 0.00 0.00 0.00 68 1011.1
20260509165551 64 125 2.0 2.0 0.00 0.00 0.00 69 1011.3
20260509165047 64 246 0.0 1.0 0.00 0.00 0.00 69 1011.3
20260509164543 63 221 1.0 2.0 0.00 0.00 0.00 69 1011.3
20260509164044 64 243 1.0 1.0 0.00 0.00 0.00 69 1011.3
20260509163543 64 335 3.0 3.0 0.00 0.00 0.00 69 1011.6
20260509163037 64 237 3.0 3.0 0.00 0.00 0.00 69 1011.5
20260509162535 64 237 1.0 1.0 0.00 0.00 0.00 68 1011.4
20260509162031 64 155 0.0 0.0 0.00 0.00 0.00 70 1011.5
20260509161527 64 202 2.0 2.0 0.00 0.00 0.00 68 1011.7
20260509161022 64 213 1.0 1.0 0.00 0.00 0.00 68 1011.7
20260509160518 64 201 3.0 5.0 0.00 0.00 0.00 69 1011.7
20260509160014 64 200 3.0 3.0 0.00 0.00 0.00 69 1011.8
20260509155510 64 178 5.0 6.0 0.00 0.00 0.00 67 1011.6
20260509155006 63 244 1.0 1.0 0.00 0.00 0.00 71 1011.8
20260509154503 64 171 0.0 1.0 0.00 0.00 0.00 72 1012.1
20260509154000 63 194 3.0 3.0 0.00 0.00 0.00 72 1012.0
20260509153457 63 207 2.0 3.0 0.00 0.00 0.00 71 1012.2
20260509152954 64 227 1.0 1.0 0.00 0.00 0.00 71 1012.2
20260509152449 63 211 1.0 1.0 0.00 0.00 0.00 73 1011.9
20260509151947 62 181 2.0 2.0 0.00 0.00 0.00 74 1012.1
20260509151443 62 159 0.0 1.0 0.00 0.00 0.00 76 1012.2
20260509150941 60 172 1.0 1.0 0.00 0.00 0.00 78 1012.0
20260509150438 61 175 2.0 2.0 0.00 0.00 0.00 77 1012.3
20260509145936 60 268 3.0 3.0 0.00 0.00 0.00 78 1012.2
20260509145431 60 125 4.0 6.0 0.00 0.00 0.00 80 1012.3
20260509144927 60 266 1.0 2.0 0.00 0.00 0.00 79 1012.3
20260509144424 60 209 3.0 5.0 0.00 0.00 0.00 78 1012.1
20260509143921 59 198 0.0 1.0 0.00 0.00 0.00 80 1012.3
20260509143418 60 177 1.0 1.0 0.00 0.00 0.00 80 1012.2
20260509142914 60 207 0.0 1.0 0.00 0.00 0.00 80 1012.4